www.pogodaiklimat.ru

Погода и климат >> Архив погоды >> Пакистан >> Jacobabad


ПОГОДА в Jacobabad

  • Прогноз погоды в Jacobabad
  • Монитор погоды в Jacobabad
  • Климат города

АРХИВ ПОГОДЫ в Jacobabad

Время (UTC), дата Ветер
(напр.,м/с)
 
Видим.   Явления Облачность Т
(С)
Тd
(С)
f
(%)
Тe
(С)
Тes
(С)
Комфортность P
(гПа)
Po
(гПа)
Тmin
(С)
Tmax
(С)
R
(мм)
R24
(мм)
S
(см)
03 11.10 штиль 0 4000 м мгла ясно +24.5 +19.1 72 +29 +32 душно 1010.9 1004.5 +20.9
06 11.10 штиль 0 4000 м мгла ясно +30.0 +18.5 50 +35 +51 опасность
солнечного
удара
1011.9 1005.6
09 11.10 штиль 0 4000 м мгла ясно +34.0 +18.0 39 +38 +54 опасность
солнечного
удара
1008.6 1000.0
12 11.10 штиль 0 4000 м мгла ясно +33.5 +16.3 36 +36 +38 очень
душно
1007.5 1001.3 +36.1
15 11.10 штиль 0 4000 м мгла ясно +30.0 +19.4 53 +36 +36 очень
душно
1008.4 1000.0
18 11.10 штиль 0 4000 м мгла ясно +28.0 +19.6 60 +34 +34 очень
душно
1010.0 1003.7
21 11.10 штиль 0 4000 м мгла ясно +26.0 +19.1 66 +31 +31 очень
душно
1009.4 1009.0
00 12.10 штиль 0 4000 м мгла ясно +23.5 +18.0 71 +28 +28 душно 1009.9 1003.5
03 12.10 штиль 0 4000 м мгла ясно +23.0 +15.6 63 +27 +29 душно 1012.8 1006.4 +20.5
06 12.10 штиль 0 4000 м мгла ясно +30.5 +18.2 48 +35 +51 опасность
солнечного
удара
1014.6 1008.3
09 12.10 штиль 0 4000 м мгла ясно +34.0 +19.9 44 +40 +56 опасность
солнечного
удара
1011.4 1011.0
12 12.10 штиль 0 4000 м мгла ясно +33.0 +17.6 40 +37 +39 очень
душно
1010.5 1004.3 +35.1
15 12.10 штиль 0 4000 м мгла ясно +30.0 +19.4 53 +36 +36 очень
душно
1011.2 1000.0
18 12.10 штиль 0 4000 м мгла ясно +27.5 +19.0 60 +33 +33 очень
душно
1013.5 1007.2
21 12.10 штиль 0 4000 м мгла ясно +26.0 +18.2 62 +31 +31 очень
душно
1012.9 1013.0
00 13.10 штиль 0 4000 м мгла ясно +23.0 +17.4 71 +28 +28 душно 1012.3 1005.9
03 13.10 штиль 0 4000 м мгла ясно +24.5 +18.2 68 +29 +31 душно 1013.7 1007.3 +21.5
06 13.10 СВ 3 4000 м мгла ясно +28.5 +15.6 46 +32 +41 душно 1015.3 1007.8
09 13.10 штиль 0 4000 м мгла ясно +35.0 +19.3 40 +40 +56 опасность
солнечного
удара
1012.4 1000.0
12 13.10 СВ 2 4000 м мгла ясно +32.0 +14.1 34 +34 +35 душно 1011.2 1004.1 +33.1
15 13.10 штиль 0 4000 м мгла ясно +30.0 +20.3 56 +37 +37 очень
душно
1011.9 1000.0
18 13.10 штиль 0 4000 м мгла ясно +27.5 +19.0 60 +33 +33 очень
душно
1013.3 1007.0
21 13.10 штиль 0 4000 м мгла ясно +25.5 +17.6 62 +30 +30 душно 1012.6 1000.0
00 14.10 штиль 0 4000 м мгла ясно +23.5 +18.0 71 +28 +28 душно 1012.1 1005.7
03 14.10 штиль 0 4000 м мгла ясно +25.0 +20.5 76 +31 +33 очень
душно
1012.8 1006.4 +22.5
06 14.10 штиль 0 4000 м мгла ясно +31.0 +18.8 48 +36 +52 опасность
солнечного
удара
1013.3 1007.0
09 14.10 штиль 0 4000 м мгла ясно +33.5 +20.1 45 +40 +55 опасность
солнечного
удара
1011.0 1000.0
12 14.10 штиль 0 4000 м мгла ясно +33.5 +20.1 45 +40 +41 очень
душно
1008.6 1002.4 +35.0
15 14.10 штиль 0 4000 м мгла ясно +31.0 +19.7 51 +37 +37 очень
душно
1009.4 1000.0
18 14.10 штиль 0 4000 м мгла ясно +28.5 +20.2 61 +35 +35 очень
душно
1010.9 1004.6
21 14.10 штиль 0 4000 м мгла ясно +26.5 +19.6 66 +32 +32 очень
душно
1009.8 1010.0
00 15.10 штиль 0 4000 м мгла ясно +24.5 +19.9 76 +30 +30 очень
душно
1009.1 1002.7
03 15.10 штиль 0 4000 м мгла ясно +23.5 +17.1 67 +27 +29 душно 1012.7 1006.4 +21.8
06 15.10 штиль 0 4000 м мгла ясно +30.0 +17.5 47 +34 +49 очень
душно
1013.7 1007.4
09 15.10 штиль 0 4000 м мгла ясно +33.5 +16.3 36 +36 +51 опасность
солнечного
удара
1011.0 1000.0
12 15.10 штиль 0 4000 м мгла 4/0
[Ac trans]
+32.5 +15.9 37 +35 +36 душно 1009.4 1003.2 +35.1
15 15.10 штиль 0 4000 м мгла 3/0
[Ac trans]
+30.0 +17.5 47 +34 +34 очень
душно
1010.1 1000.0
18 15.10 штиль 0 4000 м мгла ясно +26.0 +16.4 55 +29 +29 душно 1010.9 1004.6
21 15.10 штиль 0 4000 м мгла ясно +25.0 +15.7 56 +28 +28 жарко 1010.4 1000.0
00 16.10 штиль 0 4000 м мгла ясно +24.0 +16.5 63 +27 +27 жарко 1010.8 1004.4
03 16.10 штиль 0 4000 м мгла 5/0
[Ac trans]
+21.0 +17.9 82 +25 +26 комфорт 1011.4 1004.9 +20.1
06 16.10 штиль 0 4000 м мгла 3/0
[Ac trans]
+29.5 +16.9 47 +33 +46 душно 1012.6 1006.3
09 16.10 штиль 0 4000 м мгла 3/0
[Ac trans]
+34.0 +16.9 36 +37 +49 очень
душно
1010.3 1000.0
12 16.10 штиль 0 4000 м мгла 3/0
[Ac trans]
+33.5 +17.3 38 +37 +38 очень
душно
1009.3 1003.1 +36.0
15 16.10 штиль 0 4000 м мгла 1/0
[Ac trans]
+30.0 +17.5 47 +34 +34 очень
душно
1010.4 1000.0
18 16.10 штиль 0 4000 м мгла ясно +26.0 +17.3 59 +30 +30 душно 1011.4 1005.1
21 16.10 штиль 0 4000 м мгла ясно +24.0 +17.6 67 +28 +28 душно 1010.9 1000.0
00 17.10 штиль 0 4000 м мгла ясно +22.0 +17.2 74 +26 +26 душно 1011.2 1004.7
03 17.10 штиль 0 4000 м мгла ясно +22.5 +17.7 74 +28 +29 душно 1012.4 1005.9 +20.1
06 17.10 штиль 0 4000 м мгла ясно +22.5 +17.7 74 +28 +43 душно 1012.4 1005.9 +20.1
09 17.10 СВ 1 4000 м мгла ясно +35.0 +8.9 20 +33 +46 жарко 1009.8 1010.0
12 17.10 СВ 1 4000 м мгла ясно +34.5 +12.1 26 +35 +36 очень
жарко
1008.8 1002.7 +36.5
15 17.10 штиль 0 4000 м мгла ясно +30.0 +15.6 42 +33 +33 душно 1009.7 1000.0
18 17.10 ЮЗ 3 н/о мгла 3/0
[Ci fib]
+25.0 +14.1 51 +27 +27 жарко 1010.3 1002.6
21 17.10 штиль 0 4000 м мгла ясно +24.0 +15.8 60 +27 +27 жарко 1010.1 1000.0

 

Местоположение метеостанции Jacobabad (Пакистан): широта 28.30 долгота 68.47 высота над уровнем моря 56 м.

В архиве по умолчанию представлена погода в Jacobabad за последнюю неделю. Архивные данные за месяц целиком и за предыдущие месяцы, начиная с января 2011 года, Вы можете получить, выбрав интересующий диапазон дат из раскрывающегося списка и нажав кнопку "Ввод!".


*Определитесь, кто Вы:
робот инопланетянин человек

Внимание! Время в таблицах - всемирное. Для получения местного времени необходимо прибавить поправку, которая в Jacobabad равна 5 ч.

Смотрите также архив погоды в соседних городах и на ближайших метеорологических станциях:

Погода в Rohri (Пакистан) (82 км)
Погода в Sibi (Пакистан) (150 км)
Погода в Pad Idan (Пакистан) (165 км)
Погода в Khuzdar (Пакистан) (188 км)
Погода в Kalat (Пакистан) (202 км)
Погода в Barkhan (Пакистан) (214 км)
Погода в Khanpur (Пакистан) (220 км)
Погода в Nawabshah (Пакистан) (228 км)
Погода в Quetta Airport (Пакистан) (266 км)
Погода в Jaisalmer (Rajasthan, Индия) (287 км)

Пояснения к столбцам:

Ветер - указаны скорость ветра в м/с - средняя за 10 мин, порывы в срок и между сроками (в фигурных скобках) и направление, откуда дует ветер: С - северный, СВ - северо-восточный, В - восточный, ЮВ - юго-восточный, Ю - южный, ЮЗ - юго-западный, З - западный, СЗ - северо-западный.
Видимость - горизонтальная дальность видимости в метрах или километрах. При видимости от 1 до 10 км при отсутствии осадков обычно наблюдается дымка, при ухудшении видимости до 1 км и менее - туман. В сухую погоду видимость может ухудшаться дымом, пылью или мглою.
Явления - указаны атмосферные явления, наблюдавшиеся в срок или в последний час перед сроком; фигурными скобками обозначены явления, наблюдавшиеся между сроками (за 1-3 часа до срока); квадратными скобками обозначены град или гололедные отложения с указанием их диаметра в мм.
Облачность - указаны через наклонную черту общая и нижняя облачность в баллах и высота нижней границы облаков в метрах; квадратными скобками обозначены формы облаков: Ci - перистые, Cs - перисто-слоистые, Cc - перисто-кучевые, Ac - высококучевые, As - высокослоистые, Sc - слоисто-кучевые, Ns - слоисто-дождевые, Cu - кучевые, Cb - кучево-дождевые. Подробнее классификацию облаков см. в Атласе облаков (PDF).
T - Температура воздуха - температура, измеренная на высоте 2 м над землей.
Td - Температура точки росы - температура, при понижении до которой содержащийся в воздухе водяной пар достигнет насыщения.
f - Относительная влажность воздуха - влажноcть воздуха, измеренная на высоте 2 м над землей.
Te - Эффективная температура - температура, которую ощущает одетый по сезону человек в тени. Характеристика душности погоды. При расчете учитывается влияние влажности воздуха и скорости ветра на теплоощущения человека.
Tes - Эффективная температура на солнце - температура, которую ощущает человек, с поправкой на солнечный нагрев. Характеристика знойности погоды. Зависит от высоты солнца над горизонтом, облачности и скорости ветра. Ночью, в пасмурную погоду, а также при ветре 12 м/с и более поправка равна нулю.
P - Атмосферное давление - приведенное к уровню моря атмосферное давление.
Po - Атмосферное давление - измеренное на уровне метеостанции атмосферное давление.
Tmin - Минимальная температура - минимум температуры воздуха на высоте 2 м над землей.
Tmax - Максимальная температура - максимум температуры воздуха на высоте 2 м над землей.
R - Количество осадков - Количество выпавших осадков за период времени, мм. При наведении курсора мыши на число - период времени, за который выпало указанное количество осадков.
R24 - Количество осадков - Количество выпавших осадков за 24 часа, мм.
S - Снежный покров - Высота снежного покрова, см. При наведении курсора мыши на число - состояние снежного покрова и степень покрытия местности в баллах.